Home > Weather > Sioux Falls > Past weeks

Flag for USA Past Weather in Sioux Falls, South Dakota, USA — Yesterday and Last 2 Weeks

Now
62 °F

Light rain. Mostly cloudy.


Feels Like: 62 °F
Forecast: 58 / 72 °F
Wind: 6 mph from West

Location: Foss Field

Current Time: May 31, 2016 at 2:53:13 AM

Latest Report: May 31, 2016 at 1:56 AM


Visibility: 9 mi

Pressure: 29.80 "Hg

Humidity: 86%

Dew Point: 58 °F

Location of Sioux FallsLocation

Past Weather in Sioux Falls — Graph

°F

Sioux Falls Temperature Yesterday

Maximum temperature yesterday: 81 °F (at 5:56 PM)
Minimum temperature yesterday: 55 °F (at 12:56 AM)
Average temperature yesterday: 71 °F

High & Low Weather Summary for the Past Weeks

 TemperatureHumidityPressure
High83 °F (May 24, 2:56 PM)97% (May 28, 5:56 AM)30.29 "Hg (May 28, 5:56 AM)
Low40 °F (May 16, 5:56 AM)30% (May 17, 3:56 PM)29.67 "Hg (May 23, 12:56 AM)
Average64 °F64%29.94 "Hg
* Reported May 16 12:56 AM — May 31 12:56 AM, Sioux Falls, Weather by CustomWeather, © 2016

Note: Actual official high and low records may vary slightly from our data, if they occured in-between our weather recording intervals... More about our weather records

Advertising

Sioux Falls Weather History for the Previous 24 Hours

Scroll right to see more
 ConditionsComfort  
Time TempWeatherWind HumidityBarometerVisibility
12:56 AM
Tue, May 31
62 °FThunderstorms. Fog.9 mph86%29.83 "Hg3 mi
11:56 PM
Mon, May 30
69 °FThunderstorms. Overcast.12 mph70%29.76 "Hg10 mi
10:56 PM71 °FMostly cloudy.22 mph66%29.75 "Hg10 mi
9:56 PM74 °FMore clouds than sun.13 mph60%29.78 "Hg10 mi
8:56 PM72 °FBroken clouds.5 mph61%29.75 "Hg10 mi
7:56 PM75 °FScattered clouds.7 mph54%29.75 "Hg10 mi
6:56 PM80 °FScattered clouds.12 mph44%29.75 "Hg10 mi
5:56 PM81 °FScattered clouds.13 mph41%29.78 "Hg10 mi
4:56 PM80 °FOvercast.13 mph45%29.81 "Hg10 mi
3:56 PM80 °FOvercast.12 mph51%29.84 "Hg10 mi
2:56 PM79 °FPartly sunny.12 mph52%29.87 "Hg10 mi
1:56 PM78 °FPartly sunny.16 mph52%29.89 "Hg10 mi
12:56 PM77 °FPartly sunny.12 mph54%29.92 "Hg10 mi
11:56 AM75 °FPartly sunny.17 mph55%29.95 "Hg10 mi
10:56 AM74 °FPartly sunny.15 mph52%29.97 "Hg10 mi
9:56 AM71 °FPartly sunny.12 mph63%29.98 "Hg10 mi
8:56 AM70 °FBroken clouds.6 mph59%29.97 "Hg10 mi
7:56 AM66 °FPartly sunny.8 mph63%29.97 "Hg10 mi
6:56 AM62 °FBroken clouds.6 mph73%29.97 "Hg10 mi
5:56 AM60 °FPartly cloudy.7 mph80%29.98 "Hg10 mi
4:56 AM63 °FPassing clouds.7 mph75%29.99 "Hg10 mi
3:56 AM63 °FMostly cloudy.5 mph70%30.00 "Hg10 mi
2:56 AM59 °FPartly cloudy.5 mph87%29.99 "Hg10 mi
Weather by CustomWeather, © 2016

See weather overviewHow to use our weather pages